sat.trackr.live / text

‹ back to catalog

ONEWEB-0421

NORAD 50496 · 2021-132AD

PAYLOAD ACTIVE UNKNOWN

§ Identity

Operator
Country
UK
Launch date
2021-12-27
Launch site
TYMSC
Launch vehicle
Mass (kg)
RCS (m²)

Purposes: comms

External: N2YO · Heavens-Above · Gunter

§ Orbital elements

Epoch: 2026-05-25T02:22:42.200256Z

Period
109.20 min
Inclination
87.9165°
Eccentricity
0.0002159
Mean motion
13.18685791 rev/d
Perigee alt
1,188.1 km
Apogee alt
1,191.4 km
Semi-major
7,567.9 km
B*
5.6199e-5
RAAN
340.0518°
Arg perigee
82.4235°
Mean anomaly
277.7143°
Rev number
21,857

§ Raw data

ONEWEB-04211 50496U 21132AD  26145.09909954  .00000035  00000+0  56199-4 0  99972 50496  87.9165 340.0518 0002159  82.4235 277.7143 13.18685791218577

JSON: /api/v1/satellites/50496 · /tle

For live sub-satellite position, see the globe view (requires WebGL).

§ Visibility from observer

Set your observer location to see the next 7 days of passes ≥ 10°. The values pass through the URL so the page stays shareable.

No JS? Fill the form by hand. The geolocation button needs JavaScript.